Regional Weather Roundup
Issued by NWS

Home | Current Version | Previous Version | Graphics & Text | Print | Product List | Glossary On
Versions: 1 2 3 4 5 6 7 8 9 10 11 12 13 14 15 16 17 18 19 20 21 22 23 24 25 26 27 28 29 30 31 32 33 34 35 36 37 38 39 40 41 42 43 44 45 46 47 48 49 50
000
ASUS43 KMKX 201600
RWRWI

WISCONSIN REGIONAL WEATHER ROUNDUP
NATIONAL WEATHER SERVICE MILWAUKEE/SULLIVAN WI
1100 AM CDT SUN AUG 20 2017

NOTE: "FAIR" INDICATES FEW OR NO CLOUDS BELOW 12,000 FEET WITH NO
SIGNIFICANT WEATHER AND/OR OBSTRUCTIONS TO VISIBILITY.

WIZ001-002-006>008-014>016-023>028-201700-
NORTHWEST WISCONSIN

CITY           SKY/WX    TMP DP  RH WIND       PRES   REMARKS
SUPERIOR ARPT    N/A     72  66  81 W12       29.87R
ASHLAND        CLOUDY    78  66  66 S12       29.86F HX  80
HAYWARD        MOSUNNY   75  63  66 S14       29.91S
SIREN          SUNNY     75  64  70 W8        29.90R
CUMBERLAND     SUNNY     72  63  73 SW10      29.93S
RICE LAKE      SUNNY     73  65  75 S7        29.95R
CHETEK         SUNNY     73  65  76 SW9G16    29.94R
LADYSMITH      SUNNY     74  65  73 S13       29.96S
EAU CLAIRE     NOT AVBL
MENOMONIE      CLOUDY    73  65  75 S9G17     29.94S
NEW RICHMOND   SUNNY     75  64  68 SW10      29.93S
OSCEOLA        SUNNY     76  65  69 SW7       29.94S
$$

WIZ003>005-009-010-017-018-201700-
NORTH CENTRAL WISCONSIN

CITY           SKY/WX    TMP DP  RH WIND       PRES   REMARKS
MANITOWISH WTR SUNNY     73  67  79 SW14G21   29.94S
ARBOR VITAE    MOSUNNY   74  65  72 SW13G23   29.96S
WOODRUFF       MOSUNNY   74  65  72 SW13G23   29.96S
RHINELANDER    CLOUDY    74  64  71 S14G21    29.99S
EAGLE RIVER    SUNNY     73  61  66 SW14G20   29.97S
LAND O LAKES   SUNNY     73  62  68 SW9G20    29.98F
PHILLIPS       MOSUNNY   73  65  77 S10G16    29.95F
TOMAHAWK         N/A     72  63  74 S3        29.98F
MEDFORD        CLOUDY    69  63  80 S12       29.99S
MERRILL        CLOUDY    72  64  78 S8        30.00S
$$

WIZ029-030-035-036-043>047-201700-
CENTRAL WISCONSIN

CITY           SKY/WX    TMP DP  RH WIND       PRES   REMARKS
WAUSAU         CLOUDY    72  62  71 S10       29.99S
MOSINEE        CLOUDY    72  64  78 S8        30.01F
MARSHFIELD     CLOUDY    74  63  68 S9        30.00S
STEVENS POINT  CLOUDY    72  61  70 S9        30.02S
WAUPACA        CLOUDY    76  64  67 S8        30.02S
WAUTOMA        CLOUDY    76  65  68 S8        30.03S
WISC RAPIDS    CLOUDY    75  65  70 SW9       30.02S
CAMP DOUGLAS   NOT AVBL
$$

WIZ011>013-019>022-031-037>040-048>050-201700-
NORTHEAST WISCONSIN

CITY           SKY/WX    TMP DP  RH WIND       PRES   REMARKS
ANTIGO         CLOUDY    71  63  76 SW10      30.02S
SHAWANO        CLOUDY    75  64  67 SW8       30.01R
OCONTO         CLOUDY    75  64  68 SW8       30.01R
STURGEON BAY   CLOUDY    76  65  68 SW10      30.02S
GREEN BAY      CLOUDY    75  65  70 S10       30.02R
MANITOWOC      NOT AVBL
APPLETON       PTSUNNY   73  59  60 SW12      30.01S
CLINTONVILLE   CLOUDY    73  61  64 SW10      30.02R
OSHKOSH        MOSUNNY   75  63  66 S10       30.03S
$$

WIZ032>034-041-042-053>061-201700-
SOUTHWEST WISCONSIN

CITY           SKY/WX    TMP DP  RH WIND       PRES   REMARKS
LA CROSSE      CLOUDY    75  65  70 S8        30.00R
SPARTA         CLOUDY    71  64  78 S3        30.01R
VIROQUA        CLOUDY    70  66  87 SW8       30.03R
BOSCOBEL       CLOUDY    74  64  71 SW7       30.02R
PRAIRIE DU CHI CLOUDY    71  63  77 SW3       30.02R
PLATTEVILLE    CLOUDY    70  69  94 SW7       30.05S
$$

WIZ056-057-062-063-064-067-068-201700-
SOUTH CENTRAL WISCONSIN

CITY           SKY/WX    TMP DP  RH WIND       PRES   REMARKS
REEDSBURG      CLOUDY    73  65  77 SW9       30.02S
BARABOO/DELLS  CLOUDY    73  62  66 S9        30.03S
LONE ROCK      CLOUDY    75  66  73 SW6       30.02R
MINERAL POINT  CLOUDY    72  68  88 SW8       30.05R
MADISON        CLOUDY    75  65  70 S7        30.03S
MIDDLETON      CLOUDY    75  65  70 SW6       30.04S
WATERTOWN      CLOUDY    73  66  78 S8        30.04S
MONROE         PTSUNNY   72  64  78 S9        30.05S
JANESVILLE     CLOUDY    77  66  69 S7        30.04R
$$

WIZ051-052-058>065-066-070>072-201700-
SOUTHEAST WISCONSIN

CITY           SKY/WX    TMP DP  RH WIND       PRES   REMARKS
MILWAUKEE      CLOUDY    80  64  58 SW12      30.05R HX  82
WAUKESHA       SUNNY     73  63  68 S12       30.06S
MILWAUKEE/TIMM SUNNY     77  59  53 S7        30.06R
RACINE         CLOUDY    78  66  66 S8        30.06S HX  80
KENOSHA        CLOUDY    80  64  58 SW8       30.05S HX  82
FOND DU LAC    CLOUDY    76  62  62 S8        30.03S
SHEBOYGAN      CLOUDY    77  64  64 SW9       30.04S
WEST BEND      MOSUNNY   73  63  68 S7        30.05S
JUNEAU         CLOUDY    73  64  72 S8        30.05S
$$

LSZ147-162-201700-
LAKE SUPERIOR

STATION/POSITION TIME  TEMP    WIND        PRES    WAVE
                       AIR SEA DIR/SP/G            HT/PER
                 (UTC) (F)     (DEG/KT/KT) (MB)    (FT/S)
W MID LAKE BUOY  1450   63 60  200/ 12/ 14 1010.3F   1/ 3
DEVILS ISLAND    1500   68     220/  5/  7 1010.4F
SAXON HARBOR     1540   77     200/  8/ 13 1010.8S
$$

LMZ867-665-643>646-201700-
LAKE MICHIGAN

STATION/POSITION TIME  TEMP    WIND        PRES    WAVE
                       AIR SEA DIR/SP/G            HT/PER
                 (UTC) (F)     (DEG/KT/KT) (MB)    (FT/S)
S GREEN BAY BUOY 1530   71 71  210/ 10/ 14 1015.9R
N MID LAKE BUOY  1450   68 67  180/  8/ 10 1016.2R   1/ 4
NORTHPORT PIER   1540   71     140/  7/  9 1015.6R
KEWAUNEE LAKESHO 1530   68     170/  7/  8 1015.9R
SHEBOYGAN LAKESH 1400   68     160/  7/  8 1016.0F
PORT WASHINGTON  1540   74     170/  6/  7 1017.9S
ATWATER BUOY     1409   71 71  170/  8/ 10 1017.6R
MILWAUKEE LAKESH 1530   72     140/  8/  8   N/A
S MID LAKE BUOY  1450   72 71  190/ 10/ 12 1017.8R   1/ 3
KENOSHA   LAKESH 1500   72     160/  8/  9 1017.3
$$

TC  - TEMPERATURE IN CELSIUS
VSB - VISIBILITY IN STATUTE MILES
WCI - WIND CHILL INDEX
HX  - HEAT INDEX





USA.gov is the U.S. government's official web portal to all federal, state and local government web resources and services.